Location: Plymouth
(43.7490°N, 87.9770°W)
Time: 16:13:15
(UTC-05:00)

Daily predictions for brighter satellites

Satellite Brightness Start Highest point End
(mag) Time Altitude Azimuth Time Altitude Azimuth Time Altitude Azimuth
Cosmos 1633 2.7 20:21:00 10° S 20:24:30 49° E 20:28:01 10° NNE
YAOGAN 6 3.8 20:21:42 10° SE 20:24:37 24° ENE 20:27:30 10° NNE
Cosmos 44 3.4 20:20:56 10° NNW 20:25:16 54° NE 20:29:43 10° SE
S3M 4.4 20:21:19 10° N 20:27:17 45° ENE 20:33:19 10° SSE
Cosmos 1553 Rocket 4.2 20:25:03 10° N 20:31:05 52° ENE 20:37:01 10° SSE
Cosmos 1697 Rocket 3.2 20:26:19 10° SW 20:31:53 66° WNW 20:37:31 10° NNE
Resurs 01 Rocket 2.0 20:31:54 10° S 20:36:20 69° WSW 20:40:48 10° NNW
Meteor 2-11 Rocket 4.4 20:31:45 10° N 20:37:51 71° E 20:43:53 10° SSE
Cosmos 1452 Rocket 3.6 20:34:52 10° S 20:40:02 57° ESE 20:45:13 10° NNE
Cosmos 839 Rocket 4.0 20:35:38 10° SSW 20:41:46 58° ESE 20:47:53 10° NE
Cosmos 1782 Rocket 4.3 20:38:03 10° SSW 20:42:19 57° W 20:46:36 10° N
GPS 2-05 Rocket1 4.5 20:40:39 10° SW 20:42:57 17° S 20:44:35 13° SE
Cosmos 2227 4.2 20:37:28 10° NNW 20:43:08 78° ENE 20:48:47 10° SSE
Cosmos 1420 Rocket 4.3 20:40:27 10° S 20:45:19 44° ESE 20:50:13 10° NNE
Meteor 1-11 Rocket 4.1 20:39:58 10° SSE 20:45:30 45° E 20:50:57 10° NNE
Cosmos 407 Rocket 4.2 20:41:21 10° NNW 20:46:36 58° WSW 20:51:48 10° S
Cosmos 1812 4.5 20:43:16 10° NNW 20:46:48 34° W 20:50:19 10° SSW
ATLAS 2AS CENTAUR R/B 3.8 20:40:43 10° SSE 20:46:49 27° ESE 20:53:11 10° NE
CZ-4B DEB 3.8 20:48:27 16° ESE 20:49:57 24° ENE 20:52:23 10° NNE
CZ-4B DEB 4.4 20:48:13 10° SSE 20:51:43 75° ENE 20:55:15 10° N
Abrixas rocket 3.0 20:49:15 10° W 20:52:27 50° NNW 20:55:41 10° ENE
Tiangong 1 0.6 20:49:58 10° W 20:52:44 72° S 20:54:37 18° E
Cosmos 1300 Rocket 4.2 20:48:59 10° SSE 20:52:51 33° E 20:56:44 10° NNE
NOSS 3-1 (A) 3.6 20:47:23 10° SW 20:53:11 77° NW 20:59:46 10° NE
Cosmos 2360 4.3 20:47:55 10° SSW 20:53:38 86° WNW 20:59:22 10° NNE
Cosmos 921 Rocket 3.4 20:49:48 10° SSW 20:53:56 63° WNW 20:58:06 10° NNE
CZ-4C R/B 4.2 20:48:05 10° NW 20:54:42 38° WSW 21:01:49 10° S
Cosmos 2151 Rocket 3.5 20:50:30 10° S 20:54:50 64° E 20:59:12 10° NNE
Cosmos 1602 3.6 20:53:32 10° S 20:57:22 77° E 21:01:13 10° N
Cosmos 1975 Rocket 4.5 20:53:15 10° NNW 20:57:28 41° W 21:01:38 10° SSW
SJ-11-01 4.3 20:57:22 10° SSE 21:02:03 88° W 21:06:45 10° NNW
DELTA 2 R/B (1) 4.2 20:57:37 10° W 21:02:55 44° SSW 21:06:45 18° SE
Cosmos 1939 Rocket 3.0 20:59:16 10° S 21:03:16 77° WSW 21:07:14 10° NNW
Cosmos 1025 Rocket 4.3 21:00:40 10° NNE 21:04:09 24° ENE 21:05:50 19° ESE
Helios 1B rocket 2.5 21:03:51 10° NNE 21:07:53 52° E 21:11:53 10° S
Cosmos 1655 Rocket 4.3 21:02:17 10° SSW 21:08:33 74° W 21:14:55 10° N
USA 186 4.1 21:07:57 10° SSW 21:10:47 25° W 21:13:40 10° NW
Meteor 1-23 Rocket 4.4 21:09:18 10° N 21:14:45 52° ENE 21:18:31 20° SE
Cosmos 44 Rocket 3.9 21:10:13 10° NW 21:14:49 51° WSW 21:18:48 14° S
Cosmos 1536 2.9 21:11:13 11° S 21:15:04 56° E 21:19:05 10° NNE
GENESIS II 4.2 21:11:27 10° NNW 21:15:24 75° NE 21:17:28 26° SE
Lacrosse 5 rocket 1.7 21:14:31 10° WNW 21:18:05 48° SW 21:20:14 22° SSE
SAR-Lupe-4 3.7 21:17:09 27° SE 21:18:50 54° ENE 21:22:22 10° N
SeaSat 1 3.3 21:14:09 10° NNE 21:18:58 55° WNW 21:23:46 10° SW
Meteor 1-19 Rocket 4.5 21:13:20 10° NNW 21:19:14 75° W 21:25:02 10° S
Cosmos 1536 Rocket 3.7 21:17:26 10° NNW 21:21:46 72° W 21:25:43 12° S
Cosmos 2322 Rocket 2.1 21:17:12 10° SSW 21:22:51 69° ESE 21:28:32 10° NNE
Cosmos 1140 Rocket 4.0 21:19:27 10° NNW 21:24:36 57° WSW 21:29:22 12° S
Cosmos 2263 Rocket 2.3 21:18:59 10° NNW 21:24:40 65° ENE 21:28:02 25° SE
ARGOS 3.5 21:23:10 24° SE 21:26:11 50° ENE 21:31:22 10° N
BREEZE-M DEB (TANK) 3.0 21:25:33 10° SW 21:28:46 81° SSE 21:38:59 10° ENE
NOSS 2-3 (C) 3.9 21:26:18 10° SSW 21:30:52 56° ESE 21:36:11 10° NE
Meteor 1-29 2.8 21:28:36 10° NNE 21:32:03 83° ESE 21:34:12 21° S
SL-16 R/B 2.1 21:26:27 10° SSW 21:32:06 81° ESE 21:37:48 10° NNE
Cosmos 1844 Rocket 4.4 21:28:51 10° N 21:33:03 21° NE 21:35:38 16° E
H-2A R/B 2.7 21:31:59 27° ESE 21:33:58 38° ENE 21:38:35 10° N
SAR-Lupe-1 3.9 21:34:46 39° SSE 21:35:57 74° ENE 21:39:32 10° N
Cosmos 1515 4.4 21:34:11 10° N 21:37:41 34° ENE 21:38:01 34° E
SPOT 5 3.2 21:37:07 31° SE 21:39:05 49° ENE 21:43:40 10° N
Cosmos 2322 4.4 21:38:31 29° ESE 21:39:25 31° ESE 21:44:21 10° NE
Cosmos 1741 Rocket 4.1 21:34:40 10° NNW 21:39:56 78° WSW 21:43:02 25° S
USA 238 DEB 4.4 21:35:05 10° NNW 21:41:49 44° NE 21:45:49 24° E
ERBS 3.7 21:38:32 10° WSW 21:41:51 41° NW 21:45:11 10° NE
USA 238 4.4 21:35:11 10° NNW 21:41:55 44° NE 21:45:55 23° E
Helios 1A 4.0 21:38:35 13° S 21:42:06 44° W 21:46:11 10° NNW
COSMOS 2428 4.3 21:47:38 18° E 21:47:38 18° E 21:50:11 10° NE
Lacrosse 5 2.2 21:41:52 10° SSW 21:46:33 39° SE 21:51:14 10° ENE
Cosmos 883 Rocket 4.4 21:40:28 10° N 21:46:37 85° W 21:50:58 21° S
EXPRESS MD2 3.6 21:43:37 10° WSW 21:46:37 70° NNW 21:52:23 10° ENE
ERS-1 Rocket 3.1 21:46:08 25° S 21:49:08 75° WSW 21:54:12 10° NNW
Okean 2 3.3 21:47:17 10° N 21:51:22 63° E 21:52:05 52° SE
Meteor 1-5 Rocket 4.1 21:50:03 11° SSW 21:55:16 81° W 22:00:35 10° N
Cosmos 1500 4.0 21:56:17 37° ENE 21:56:17 37° ENE 21:59:19 10° NNE
Cosmos 2360 Rocket 2.2 21:55:38 30° S 21:58:14 54° ESE 22:03:43 10° NNE
Cosmos 1980 Rocket 4.5 21:55:17 10° WSW 21:59:51 25° NW 22:04:26 10° N
Atlas Centaur 2 3.7 21:57:54 10° WSW 22:03:45 25° S 22:04:26 25° S
MetOp-B 4.4 22:01:40 28° S 22:04:29 67° WSW 22:09:50 10° NNW
ATLAS 3B R/B 2.7 22:00:27 10° NNW 22:07:12 64° NE 22:09:41 38° ESE
Cosmos 1455 Rocket 4.2 22:08:11 29° ENE 22:08:11 29° ENE 22:11:13 10° NNE
NOSS 2-3 (D) 4.0 22:05:50 10° SW 22:10:32 75° NW 22:16:06 10° NE
DMSP B5D2-2 4.3 22:06:37 10° NNE 22:11:41 47° E 22:11:56 46° ESE
Cosmos 2315 Rocket 4.2 22:10:56 10° NNW 22:17:08 68° W 22:20:28 29° SSW
Cosmos 1110 Rocket 3.8 22:15:27 35° SSW 22:17:43 87° ESE 22:22:55 10° NNE
Okean 1-7 Rocket 4.0 22:14:42 10° NNW 22:19:07 58° W 22:20:18 42° SSW
YAOGAN 11 4.1 22:18:41 61° SSW 22:19:19 75° WSW 22:23:41 10° NNW
Okean 1 Rocket 4.3 22:18:35 15° SW 22:21:45 38° WNW 22:25:52 10° N
Landsat 7 3.7 22:25:25 70° ESE 22:25:46 74° ENE 22:30:32 10° N
Tiangong 1 3.9 22:25:23 10° W 22:25:37 12° W 22:25:37 12° W
Cosmos 1975 3.3 22:29:56 51° NNE 22:29:56 51° NNE 22:33:01 10° NNE
Meteor 1-12 Rocket 4.1 22:28:22 59° SE 22:29:02 64° E 22:34:38 10° NNE
Abrixas rocket 3.8 22:26:30 10° WNW 22:29:11 33° NNW 22:29:11 33° NNW
Cosmos 1066 Rocket 4.0 22:26:49 10° N 22:32:14 81° E 22:33:00 66° SSE
Cosmos 1607 4.4 22:27:00 10° NW 22:33:16 55° WSW 22:35:13 41° SSW
Cosmos 1331 Rocket 4.0 22:32:50 40° SSW 22:34:44 76° WNW 22:39:59 10° NNE
SPOT 1/Viking Rocket 3.7 22:33:49 51° SSW 22:34:57 66° WSW 22:40:11 10° NNW
ATLAS 2AS CENTAUR R/B 3.1 22:29:19 10° SW 22:37:05 78° NW 22:45:16 10° NE
CARTOSAT-1 3.8 22:39:30 62° NNE 22:39:30 62° NNE 22:43:17 10° N
IGS 5A 3.9 22:40:28 54° NNE 22:40:28 54° NNE 22:43:53 10° N
Terra 1.8 22:41:15 73° ENE 22:41:15 73° ENE 22:45:51 10° N
Cosmos 1743 4.4 22:49:39 28° NNE 22:49:39 28° NNE 22:51:34 10° NNE
Cosmos 1745 Rocket 3.8 22:50:34 68° SSE 22:51:21 80° E 22:57:31 10° N
H-2A R/B 3.0 22:53:26 41° NNE 22:53:26 41° NNE 22:56:39 10° N
Spot 4 4.4 23:00:35 49° NE 23:00:35 49° NE 23:04:30 10° N
CENTAUR R/B 4.3 22:53:19 10° NNW 23:00:02 32° NE 23:04:42 19° E
Cosmos 2237 4.3 23:01:22 59° SW 23:02:23 76° WNW 23:08:07 10° NNE
Cosmos 2278 Rocket 3.0 22:58:29 10° NNW 23:03:46 37° ENE 23:03:58 37° ENE
Cosmos 1503 Rocket 4.2 22:58:57 10° NNW 23:03:59 65° NE 23:03:59 65° NE
SL-8 R/B 4.2 23:02:49 10° WNW 23:06:39 56° WNW 23:06:39 56° WNW
Cosmos 2263 Rocket 4.1 23:04:06 10° NW 23:08:01 19° W 23:09:45 17° WSW
H-2A R/B 3.5 23:12:37 26° WSW 23:13:28 27° W 23:17:44 10° NW
USA 215 4.4 23:10:32 18° ENE 23:14:43 37° NNE 23:20:36 10° NW
Cosmos 1844 Rocket 2.7 23:11:52 10° NNW 23:17:17 72° W 23:17:17 72° W
GP-B 4.0 23:16:40 10° N 23:19:57 46° NNW 23:19:57 46° NNW
Meteor 2-9 Rocket 4.5 23:24:12 60° NE 23:24:12 60° NE 23:29:02 10° NNE
Cosmos 1386 Rocket 4.4 23:23:43 71° WSW 23:24:11 74° W 23:30:28 10° N
Lacrosse 5 2.8 23:24:36 10° WSW 23:29:28 45° NNW 23:34:22 10° NE
Cosmos 2219 Rocket 2.6 23:30:50 56° NE 23:30:50 56° NE 23:35:16 10° NNE
COSMOS 2428 2.9 23:29:36 63° W 23:29:54 65° WNW 23:35:38 10° NNE
SL-16 R/B 4.4 23:35:31 14° ENE 23:35:31 14° ENE 23:36:32 10° NE
USA 238 DEB 4.2 23:26:08 10° NW 23:32:53 48° WSW 23:33:14 48° SW
USA 238 4.1 23:26:14 10° NW 23:33:00 49° WSW 23:33:20 49° SW
NOSS 3-2 (A) 3.8 23:26:05 10° NW 23:33:38 84° SW 23:34:33 72° SSE
CZ-2C R/B 3.8 23:34:51 10° NNE 23:38:10 33° NE 23:38:10 33° NE
Cosmos 2360 Rocket 4.1 23:37:55 10° WSW 23:42:34 26° NW 23:47:14 10° N
Cosmos 1844 4.2 23:37:29 10° NNW 23:42:15 54° WNW 23:42:15 54° WNW
Cosmos 2333 Rocket 2.7 23:45:14 52° NNE 23:45:14 52° NNE 23:49:28 10° NNE
Cosmos 2181 Rocket 4.0 23:43:39 10° N 23:49:48 82° NNW 23:49:48 82° NNW
